Location: Nairn
(57.5833°N, 3.8667°W)
Time: 16:30:59
(UTC+00:00)

S-56A Canister/Altair - Pass Details

Date: 01 December 2020
Orbit: 633 x 2499 km, 38.9° (Epoch: 19 January)

Event Time Altitude Azimuth Distance (km) Brightness Sun altitude
Rises 22:17:51 0° 253° (WSW) 5,044 11.9 -49.5°
Enters shadow 22:21:27 - 243° (WSW) 4,024 11.2 -49.8°
Reaches altitude 10° 22:22:53 10° 237° (WSW) 3,652 - -49.9°
Maximum altitude 22:28:10 17° 201° (SSW) 2,683 - -50.3°
Drops below altitude 10° 22:32:27 10° 162° (SSE) 2,835 - -50.6°
Sets 22:35:40 0° 142° (SE) 3,518 - -50.9°
